"Pseudo-MPEC" for P10TNZ9

Created 2019 Nov 13 1:07:11 UT using Find_Orb

Click here for an explanation of pseudo-MPECs

 
 Astrometry: 
     P10TNZ9  C2019 10 31y8Sb(QAstrometrypJ5Wu7Ds#*=7q\?[$1UCC:CBPB4]^=4TA$f;F51
     P10TNZ9  C2019 10 310i?o`Vredacted;fBO!!:VD]pg!cn8H1'V-+B#-mclick?VSOBv%F51
     P10TNZ9  C2019 10 31wQ?SuW$b7YK+qM=herexfor*$)'*gt#Cexplanation(S?X2/+p*F51

Station data:
(F51) Pan-STARRS 1, Haleakala  (N20.707235 W156.255910)  US/Hawaii.
   Observers N. Primak, A. Schultz, S. Watters, J. Thiel, T. Goggia. Measurer
   PS1 Science Consortium. 1.8-m Ritchey-Chrétien + CCD.

Orbital elements:  P10TNZ9
   Perihelion 2020 Jan 16.399727 +/- 53.1 TT =  9:35:36 (JD 2458864.899727)
Epoch 2019 Oct 31.0 TT = JDT 2458787.5   Earth MOID: 0.2433   AutoNEOCP
M 341.48090937 +/- 15               (J2000 ecliptic)
n   0.23926558 +/- 0.232            Peri.  328.52664 +/- 100
a   2.56970082 +/- 1.66             Node   132.81688 +/- 48
e   0.5284480 +/- 0.244             Incl.    9.52530 +/- 6
P   4.12                   H 22.0   G  0.15   U 11.8  SR
q 1.21174747 +/- 0.524    Q 3.92765416 +/- 97.2
From 3 observations 2019 Oct. 31 (33.2 min); mean residual 0".05
Residuals in arcseconds: 
191031 F51  .05+  .01-    191031 F51  .09-  .02+    191031 F51  .05+  .01-    

Ephemerides (geocentric):
Date (UTC) HH   RA              Dec         delta   r     elong  mag " sig PA
---- -- -- --  -------------   -----------  ------ ------ -----  --- ---- ---
2019 11 13 01  03 21 58.606   -12 48 19.70  .46058 1.4056 149.3 22.1  46d 179
2019 11 13 02  03 21 57.808   -12 48 47.23  .46039 1.4053 149.3 22.1  46d 179
2019 11 13 03  03 21 57.008   -12 49 14.72  .46021 1.4051 149.3 22.1  46d 179
2019 11 13 04  03 21 56.207   -12 49 42.14  .46003 1.4049 149.3 22.1  46d 179
2019 11 13 05  03 21 55.404   -12 50 09.51  .45985 1.4047 149.2 22.1  46d 179
2019 11 13 06  03 21 54.601   -12 50 36.83  .45966 1.4044 149.2 22.1  46d 179
2019 11 13 07  03 21 53.796   -12 51 04.09  .45948 1.4042 149.2 22.1  46d 179
2019 11 13 08  03 21 52.990   -12 51 31.29  .45930 1.4040 149.2 22.1  46d 179
2019 11 13 09  03 21 52.184   -12 51 58.44  .45912 1.4038 149.2 22.1  46d 179
2019 11 13 10  03 21 51.376   -12 52 25.53  .45894 1.4036 149.2 22.1  46d 179
2019 11 13 11  03 21 50.566   -12 52 52.56  .45876 1.4033 149.2 22.1  46d 179
2019 11 13 12  03 21 49.756   -12 53 19.54  .45858 1.4031 149.1 22.1  46d 178
2019 11 13 13  03 21 48.945   -12 53 46.46  .45840 1.4029 149.1 22.1  46d 178
2019 11 13 14  03 21 48.132   -12 54 13.33  .45822 1.4027 149.1 22.1  46d 178
2019 11 13 15  03 21 47.319   -12 54 40.13  .45804 1.4025 149.1 22.1  46d 178
2019 11 13 16  03 21 46.504   -12 55 06.88  .45786 1.4022 149.1 22.1  46d 178
2019 11 13 17  03 21 45.688   -12 55 33.58  .45768 1.4020 149.1 22.1  46d 178
2019 11 13 18  03 21 44.871   -12 56 00.21  .45750 1.4018 149.0 22.1  46d 178
2019 11 13 19  03 21 44.054   -12 56 26.79  .45732 1.4016 149.0 22.1  46d 178
2019 11 13 20  03 21 43.235   -12 56 53.31  .45714 1.4013 149.0 22.1  46d 178
2019 11 13 21  03 21 42.415   -12 57 19.78  .45696 1.4011 149.0 22.1  46d 178
2019 11 13 22  03 21 41.593   -12 57 46.18  .45678 1.4009 149.0 22.1  46d 178
2019 11 13 23  03 21 40.771   -12 58 12.53  .45660 1.4007 149.0 22.1  46d 178
2019 11 14 00  03 21 39.948   -12 58 38.82  .45643 1.4005 149.0 22.1  46d 178
2019 11 14 01  03 21 39.124   -12 59 05.05  .45625 1.4002 148.9 22.1  46d 178
2019 11 14 02  03 21 38.299   -12 59 31.23  .45607 1.4000 148.9 22.1  46d 178
2019 11 14 03  03 21 37.473   -12 59 57.34  .45589 1.3998 148.9 22.1  46d 178
2019 11 14 04  03 21 36.645   -13 00 23.40  .45572 1.3996 148.9 22.1  46d 178
2019 11 14 05  03 21 35.817   -13 00 49.40  .45554 1.3994 148.9 22.1  46d 178
2019 11 14 06  03 21 34.988   -13 01 15.34  .45536 1.3991 148.9 22.1  46d 178
2019 11 14 07  03 21 34.158   -13 01 41.22  .45519 1.3989 148.8 22.1  46d 178
2019 11 14 08  03 21 33.326   -13 02 07.04  .45501 1.3987 148.8 22.1  46d   0
2019 11 14 09  03 21 32.494   -13 02 32.81  .45483 1.3985 148.8 22.1  46d   0
2019 11 14 10  03 21 31.661   -13 02 58.51  .45466 1.3983 148.8 22.1  46d   0
2019 11 14 11  03 21 30.827   -13 03 24.16  .45448 1.3980 148.8 22.1  46d   0
2019 11 14 12  03 21 29.992   -13 03 49.74  .45431 1.3978 148.8 22.1  46d   0
2019 11 14 13  03 21 29.156   -13 04 15.27  .45413 1.3976 148.7 22.1  46d   0
2019 11 14 14  03 21 28.319   -13 04 40.74  .45396 1.3974 148.7 22.1  46d   0
2019 11 14 15  03 21 27.481   -13 05 06.15  .45378 1.3972 148.7 22.1  46d   0
2019 11 14 16  03 21 26.642   -13 05 31.49  .45361 1.3969 148.7 22.1  46d   0
2019 11 14 17  03 21 25.803   -13 05 56.78  .45343 1.3967 148.7 22.1  46d   0
2019 11 14 18  03 21 24.962   -13 06 22.01  .45326 1.3965 148.7 22.1  46d   0
2019 11 14 19  03 21 24.120   -13 06 47.18  .45308 1.3963 148.7 22.1  46d   0
2019 11 14 20  03 21 23.278   -13 07 12.29  .45291 1.3961 148.6 22.1  46d   0
2019 11 14 21  03 21 22.435   -13 07 37.33  .45274 1.3959 148.6 22.1  46d   2
2019 11 14 22  03 21 21.591   -13 08 02.32  .45256 1.3956 148.6 22.1  46d   2
2019 11 14 23  03 21 20.745   -13 08 27.25  .45239 1.3954 148.6 22.1  46d   3
2019 11 15 00  03 21 19.900   -13 08 52.11  .45222 1.3952 148.6 22.1  46d   3